West Palm Beach, FL

12:38 PM EDT on September 18, 2019 (GMT -0400)
Palm Beach International

Weather History for KPBI - July, 2019

Change the Weather History Date:

Thursday, July 11, 2019

  Actual Average Record
Temperature  
Mean Temperature 85 °F 82 °F  
Max Temperature 91 °F 90 °F 96 °F (1981)
Min Temperature 78 °F 75 °F 69 °F (1972)
Degree Days  
Heating Degree Days 0 0  
Month to date heating degree days 0 0  
Since 1 June heating degree days 0 0  
Since 1 July heating degree days 0 0  
Cooling Degree Days 20 17  
Month to date cooling degree days 208 187  
Year to date cooling degree days 2180 1786  
Since 1 June cooling degree days 779 677  
Growing Degree Days 34 (Base 50)    
Moisture  
Dew Point 73 °F    
Average Humidity 66    
Maximum Humidity 79    
Minimum Humidity 52    
Precipitation  
Precipitation 0.00 in 0.19 in 3.27 in (1941)
Month to date precipitation 0.85 2.29  
Year to date precipitation 29.05 29.30  
Snow  
Snow 0.00 in - - ()
Month to date snowfall 0.0  
Since 1 June snowfall 0.0  
Since 1 July snowfall 0.0  
Snow Depth 0.00 in    
Sea Level Pressure  
Sea Level Pressure 30.02 in    
Wind  
Wind Speed 10 mph (South)    
Max Wind Speed 23 mph    
Max Gust Speed 27 mph    
Visibility 10 miles    
Events Thunderstorm    
T = Trace of Precipitation, MM = Missing Value Source: NWS Daily Summary

Daily Weather History Graph

Daily Weather History Graph

Search for Another Location

Airport or City:

Astronomy

Jul. 11, 2019 Rise Set
Actual Time 6:34 AM EDT 8:17 PM EDT
Civil Twilight 6:08 AM EDT 8:42 PM EDT
Nautical Twilight 5:37 AM EDT 9:14 PM EDT
Astronomical Twilight 5:04 AM EDT 9:46 PM EDT
Moon 3:42 PM EDT (7/11) 2:25 AM EDT (7/11)
Length of Visible Light 14h 34m
Length of Day
13h 42m
Waxing Gibbous, 74% of the Moon is Illuminated
Jul 11
Waxing Gibbous
Jul 16
Full
Jul 24
Last Quarter
Jul 31
New
Aug 7
First Quarter

Hourly Weather History & Observations

Time (EDT) Temp. Heat Index Dew Point Humidity Pressure Visibility Wind Dir Wind Speed Gust Speed Precip Events Conditions
12:53 AM 81.0 °F 86.2 °F 73.9 °F 79% 30.04 in 10.0 mi SSW 3.5 mph - N/A   Scattered Clouds
1:53 AM 81.0 °F 86.2 °F 73.9 °F 79% 30.02 in 10.0 mi WSW 4.6 mph - N/A   Scattered Clouds
2:53 AM 80.1 °F 84.5 °F 73.9 °F 81% 30.00 in 10.0 mi South 4.6 mph - N/A   Scattered Clouds
3:53 AM 81.0 °F 86.2 °F 73.9 °F 79% 29.99 in 10.0 mi SSE 5.8 mph - N/A   Scattered Clouds
4:53 AM 80.1 °F 82.7 °F 68.0 °F 67% 29.99 in 10.0 mi South 9.2 mph - N/A   Scattered Clouds
5:53 AM 78.1 °F - 69.1 °F 74% 30.00 in 10.0 mi South 5.8 mph - N/A   Scattered Clouds
6:53 AM 78.1 °F - 71.1 °F 79% 30.01 in 10.0 mi South 3.5 mph - N/A   Mostly Cloudy
7:53 AM 82.0 °F 87.4 °F 73.0 °F 74% 30.03 in 10.0 mi South 8.1 mph - N/A   Scattered Clouds
9:53 AM 87.1 °F 95.4 °F 73.9 °F 65% 30.04 in 10.0 mi SSE 10.4 mph - N/A   Scattered Clouds
10:53 AM 88.0 °F 96.5 °F 73.9 °F 63% 30.05 in 10.0 mi SSE 15.0 mph 23.0 mph N/A   Scattered Clouds
11:53 AM 89.1 °F 99.1 °F 75.0 °F 63% 30.04 in 10.0 mi SE 16.1 mph - N/A   Scattered Clouds
12:01 PM 89.1 °F 99.1 °F 75.0 °F 63% 30.04 in 10.0 mi SSE 11.5 mph - N/A Thunderstorm Thunderstorm
12:34 PM 84.9 °F 89.4 °F 70.0 °F 61% 30.05 in 10.0 mi SW 18.4 mph 27.6 mph N/A Thunderstorm Thunderstorm
12:53 PM 84.9 °F 88.8 °F 69.1 °F 59% 30.04 in 10.0 mi SW 10.4 mph - N/A Thunderstorm Thunderstorm
1:10 PM 87.1 °F 92.0 °F 70.0 °F 57% 30.05 in 10.0 mi SW 12.7 mph - N/A   Mostly Cloudy
1:53 PM 87.1 °F 93.6 °F 72.0 °F 61% 30.03 in 10.0 mi SW 8.1 mph - N/A   Mostly Cloudy
2:53 PM 89.1 °F 96.0 °F 72.0 °F 57% 30.01 in 10.0 mi SSW 9.2 mph - N/A   Mostly Cloudy
3:53 PM 90.0 °F 95.4 °F 70.0 °F 52% 29.99 in 10.0 mi SE 16.1 mph - N/A   Scattered Clouds
4:53 PM 89.1 °F 95.0 °F 71.1 °F 55% 29.98 in 10.0 mi SSE 18.4 mph - N/A   Scattered Clouds
5:53 PM 87.1 °F 94.5 °F 73.0 °F 63% 29.98 in 10.0 mi SSE 12.7 mph - N/A   Mostly Cloudy
6:53 PM 86.0 °F 93.8 °F 73.9 °F 67% 29.98 in 10.0 mi SSE 15.0 mph - N/A   Mostly Cloudy
7:53 PM 84.9 °F 92.1 °F 73.9 °F 69% 30.00 in 10.0 mi SSE 15.0 mph - N/A   Mostly Cloudy
8:53 PM 84.0 °F 91.2 °F 73.9 °F 72% 30.01 in 10.0 mi SSE 9.2 mph - N/A   Mostly Cloudy
9:53 PM 82.9 °F 89.4 °F 73.9 °F 74% 30.01 in 10.0 mi South 6.9 mph - N/A   Mostly Cloudy
10:53 PM 82.9 °F 89.4 °F 73.9 °F 74% 30.03 in 10.0 mi South 6.9 mph - N/A   Scattered Clouds
11:53 PM 82.9 °F 89.4 °F 73.9 °F 74% 30.04 in 10.0 mi South 4.6 mph - N/A   Scattered Clouds